GW5221 Weather Reports


Display with metric or nautical units.
time (UTC)temp
F
wind
direction
speed
MPH
gust
MPH
rain 1hr
in
rain 24hr
in
rain mn
in
humidity
%
barometer
mb
20260506024454 81 36 2.0 3.0 0.00 0.00 0.00 81 1019.9
20260506023949 81 91 4.0 10.0 0.00 0.00 0.00 81 1019.8
20260506023447 81 101 2.0 4.0 0.00 0.00 0.00 81 1019.8
20260506022943 81 168 2.0 4.0 0.00 0.00 0.00 81 1019.8
20260506022441 81 357 2.0 2.0 0.00 0.00 0.00 81 1019.8
20260506021939 81 311 1.0 3.0 0.00 0.00 0.00 81 1019.7
20260506021436 81 19 4.0 6.0 0.00 0.00 0.00 81 1019.6
20260506020933 81 349 0.0 0.0 0.00 0.00 0.00 81 1019.6
20260506020431 81 50 1.0 6.0 0.00 0.00 0.00 81 1019.5
20260506015927 81 351 2.0 3.0 0.00 0.00 0.00 81 1019.6
20260506015425 81 43 2.0 3.0 0.00 0.00 0.00 81 1019.5
20260506014922 81 53 2.0 6.0 0.00 0.00 0.00 81 1019.4
20260506014419 81 346 0.0 4.0 0.00 0.00 0.00 81 1019.4
20260506013915 81 30 3.0 4.0 0.00 0.00 0.00 81 1019.2
20260506013414 81 239 1.0 3.0 0.00 0.00 0.00 81 1019.4
20260506012909 81 313 0.0 3.0 0.00 0.00 0.00 80 1019.3
20260506012406 81 44 2.0 3.0 0.00 0.00 0.00 80 1019.2
20260506011903 81 356 2.0 3.0 0.00 0.00 0.00 80 1019.1
20260506011400 81 83 2.0 6.0 0.00 0.00 0.00 80 1019.2
20260506010857 81 39 2.0 7.0 0.00 0.00 0.00 80 1018.9
20260506010355 81 31 2.0 4.0 0.00 0.00 0.00 80 1018.9
20260506005852 81 69 3.0 4.0 0.00 0.00 0.00 80 1018.9
20260506005349 81 4 4.0 6.0 0.00 0.00 0.00 79 1018.9
20260506004844 81 82 3.0 7.0 0.00 0.00 0.00 79 1018.9
20260506004343 81 226 4.0 6.0 0.00 0.00 0.00 79 1018.9
20260506003838 81 2 4.0 7.0 0.00 0.00 0.00 79 1018.9
20260506003335 81 15 2.0 8.0 0.00 0.00 0.00 79 1018.6
20260506002831 81 50 1.0 6.0 0.00 0.00 0.00 79 1018.7
20260506002328 81 32 2.0 6.0 0.00 0.00 0.00 80 1018.4
20260506001823 81 42 5.0 8.0 0.00 0.00 0.00 80 1018.5
20260506001321 81 145 5.0 11.0 0.00 0.00 0.00 80 1018.5
20260506000818 81 19 2.0 7.0 0.00 0.00 0.00 79 1018.6
20260506000316 82 16 4.0 6.0 0.00 0.00 0.00 79 1018.5
20260505235812 82 57 2.0 6.0 0.00 0.00 0.00 80 1018.6
20260505235310 82 8 4.0 6.0 0.00 0.00 0.00 79 1018.5
20260505234806 82 353 1.0 4.0 0.00 0.00 0.00 79 1018.5
20260505234304 82 40 4.0 7.0 0.00 0.00 0.00 79 1018.4
20260505233801 82 39 2.0 4.0 0.00 0.00 0.00 78 1018.4
20260505233259 82 25 3.0 6.0 0.00 0.00 0.00 78 1018.1
20260505232755 82 11 5.0 8.0 0.00 0.00 0.00 77 1018.1
20260505232253 82 57 3.0 9.0 0.00 0.00 0.00 77 1018.0
20260505231749 82 50 5.0 10.0 0.00 0.00 0.00 76 1017.9
20260505231248 82 46 2.0 6.0 0.00 0.00 0.00 77 1018.2
20260505230746 82 9 2.0 8.0 0.00 0.00 0.00 76 1018.0
20260505230242 83 15 4.0 8.0 0.00 0.00 0.00 76 1018.0
20260505225739 83 31 4.0 7.0 0.00 0.00 0.00 76 1017.8
20260505225236 83 46 2.0 3.0 0.00 0.00 0.00 76 1017.6
20260505224731 83 27 1.0 8.0 0.00 0.00 0.00 76 1017.8
20260505224229 83 31 2.0 14.0 0.00 0.00 0.00 75 1017.8
20260505223727 83 30 1.0 7.0 0.00 0.00 0.00 75 1017.5
20260505223223 83 18 2.0 6.0 0.00 0.00 0.00 75 1017.3
20260505222719 84 28 4.0 11.0 0.00 0.00 0.00 74 1017.7
20260505222215 84 348 1.0 4.0 0.00 0.00 0.00 73 1017.6
20260505221713 84 11 1.0 7.0 0.00 0.00 0.00 72 1017.5
20260505221209 84 32 4.0 8.0 0.00 0.00 0.00 71 1017.4
20260505220706 84 301 2.0 8.0 0.00 0.00 0.00 71 1017.5
20260505220204 85 120 5.0 8.0 0.00 0.00 0.00 70 1017.4
20260505215701 85 343 3.0 9.0 0.00 0.00 0.00 69 1017.7
20260505215159 85 39 4.0 7.0 0.00 0.00 0.00 68 1017.6
20260505214657 86 17 3.0 6.0 0.00 0.00 0.00 67 1017.4
20260505214154 86 26 1.0 3.0 0.00 0.00 0.00 67 1017.4
20260505213651 86 64 3.0 10.0 0.00 0.00 0.00 67 1017.6
20260505213148 87 326 4.0 7.0 0.00 0.00 0.00 65 1017.3
20260505212644 87 336 2.0 6.0 0.00 0.00 0.00 64 1017.3
20260505212142 87 340 0.0 4.0 0.00 0.00 0.00 63 1017.3
20260505211639 87 184 2.0 4.0 0.00 0.00 0.00 64 1017.1
20260505211136 88 350 3.0 4.0 0.00 0.00 0.00 62 1017.3
20260505210632 87 109 2.0 6.0 0.00 0.00 0.00 61 1017.4
20260505210129 87 249 2.0 2.0 0.00 0.00 0.00 65 1017.4
20260505205626 87 9 2.0 10.0 0.00 0.00 0.00 65 1017.1
20260505205125 88 4 1.0 4.0 0.00 0.00 0.00 64 1017.2
20260505204621 87 331 2.0 6.0 0.00 0.00 0.00 63 1017.0
20260505204119 88 54 5.0 13.0 0.00 0.00 0.00 61 1017.1
20260505203615 88 336 3.0 7.0 0.00 0.00 0.00 63 1017.3
20260505203113 88 60 4.0 15.0 0.00 0.00 0.00 63 1017.2
20260505202608 88 38 3.0 9.0 0.00 0.00 0.00 63 1017.2
20260505202104 88 320 3.0 7.0 0.00 0.00 0.00 64 1017.2
20260505201601 88 56 2.0 10.0 0.00 0.00 0.00 63 1017.3
20260505201059 89 0 4.0 9.0 0.00 0.00 0.00 61 1017.3
20260505200557 88 190 4.0 8.0 0.00 0.00 0.00 62 1017.4
20260505200053 88 278 2.0 8.0 0.00 0.00 0.00 63 1017.4
20260505195549 89 353 3.0 11.0 0.00 0.00 0.00 63 1017.7
20260505195047 89 119 4.0 9.0 0.00 0.00 0.00 61 1017.5
20260505194544 89 312 1.0 6.0 0.00 0.00 0.00 61 1017.4
20260505194039 89 337 3.0 7.0 0.00 0.00 0.00 60 1017.5
20260505193537 89 64 3.0 8.0 0.00 0.00 0.00 62 1017.2
20260505193034 89 168 2.0 8.0 0.00 0.00 0.00 62 1017.7
20260505192532 89 169 4.0 8.0 0.00 0.00 0.00 63 1017.6
20260505192030 89 332 4.0 8.0 0.00 0.00 0.00 62 1017.5
20260505191528 90 35 4.0 8.0 0.00 0.00 0.00 62 1017.4
20260505191026 89 73 4.0 9.0 0.00 0.00 0.00 63 1017.4
20260505190520 90 356 3.0 6.0 0.00 0.00 0.00 62 1017.8
20260505190016 89 272 3.0 7.0 0.00 0.00 0.00 62 1017.7
20260505185513 90 39 5.0 11.0 0.00 0.00 0.00 62 1017.8
20260505185009 90 302 3.0 8.0 0.00 0.00 0.00 61 1017.7
20260505184507 89 349 2.0 6.0 0.00 0.00 0.00 63 1017.9
20260505184003 89 213 5.0 11.0 0.00 0.00 0.00 62 1018.0
20260505183500 89 189 5.0 9.0 0.00 0.00 0.00 62 1018.1
20260505182956 89 309 2.0 10.0 0.00 0.00 0.00 63 1018.1
20260505182453 90 1 2.0 9.0 0.00 0.00 0.00 62 1018.0
20260505181949 90 336 4.0 6.0 0.00 0.00 0.00 61 1018.2
20260505181447 90 185 2.0 4.0 0.00 0.00 0.00 62 1018.2
20260505180944 90 175 3.0 10.0 0.00 0.00 0.00 62 1018.2
20260505180440 91 154 4.0 10.0 0.00 0.00 0.00 62 1018.2
20260505175937 91 48 2.0 7.0 0.00 0.00 0.00 61 1018.2
20260505175433 90 338 2.0 4.0 0.00 0.00 0.00 62 1018.6
20260505174930 90 302 4.0 6.0 0.00 0.00 0.00 62 1018.5
20260505174427 91 92 6.0 9.0 0.00 0.00 0.00 61 1018.8
20260505173923 91 327 1.0 6.0 0.00 0.00 0.00 62 1018.6
20260505173420 90 73 2.0 7.0 0.00 0.00 0.00 61 1018.8
20260505172917 90 58 2.0 10.0 0.00 0.00 0.00 63 1019.1
20260505172415 90 351 2.0 8.0 0.00 0.00 0.00 62 1019.1
20260505171914 90 310 5.0 8.0 0.00 0.00 0.00 63 1019.1
20260505171411 89 41 4.0 8.0 0.00 0.00 0.00 63 1019.2
20260505170908 89 343 2.0 9.0 0.00 0.00 0.00 62 1019.3
20260505170405 89 49 2.0 6.0 0.00 0.00 0.00 62 1019.4
20260505165900 89 264 6.0 9.0 0.00 0.00 0.00 63 1019.4
20260505165356 89 18 2.0 7.0 0.00 0.00 0.00 63 1019.4
20260505164852 89 244 4.0 7.0 0.00 0.00 0.00 62 1019.5
20260505164348 89 279 3.0 7.0 0.00 0.00 0.00 64 1019.5
20260505163847 89 162 3.0 7.0 0.00 0.00 0.00 64 1019.6
20260505163345 88 150 5.0 9.0 0.00 0.00 0.00 65 1019.6
20260505162844 89 85 2.0 7.0 0.00 0.00 0.00 66 1019.8
20260505162339 89 263 2.0 9.0 0.00 0.00 0.00 65 1019.6
20260505161837 88 103 4.0 7.0 0.00 0.00 0.00 66 1019.9
20260505161334 88 186 2.0 8.0 0.00 0.00 0.00 66 1019.9
20260505160831 87 229 5.0 7.0 0.00 0.00 0.00 66 1019.9
20260505160329 87 20 4.0 8.0 0.00 0.00 0.00 67 1019.9
20260505153308 88 262 3.0 4.0 0.00 0.00 0.00 67 1019.9
20260505152805 88 27 3.0 6.0 0.00 0.00 0.00 66 1020.0
20260505152305 88 92 3.0 9.0 0.00 0.00 0.00 67 1019.9
20260505151801 88 207 3.0 9.0 0.00 0.00 0.00 67 1020.0
20260505151259 88 294 2.0 7.0 0.00 0.00 0.00 66 1020.1
20260505150756 88 165 4.0 7.0 0.00 0.00 0.00 66 1020.1
20260505150253 88 86 2.0 4.0 0.00 0.00 0.00 65 1020.1
20260505140223 89 34 1.0 4.0 0.00 0.00 0.00 65 1020.5
20260505130147 86 105 5.0 10.0 0.00 0.00 0.00 70 1020.3
20260505124636 86 83 2.0 8.0 0.00 0.00 0.00 73 1020.3
20260505124133 85 342 2.0 4.0 0.00 0.00 0.00 72 1020.1
20260505123629 85 8 4.0 7.0 0.00 0.00 0.00 71 1020.2
20260505123126 85 188 3.0 6.0 0.00 0.00 0.00 72 1020.2
20260505122623 85 293 2.0 3.0 0.00 0.00 0.00 73 1020.2
20260505122120 85 326 2.0 6.0 0.00 0.00 0.00 73 1020.1
20260505121616 85 16 5.0 8.0 0.00 0.00 0.00 73 1020.0
20260505121113 84 77 2.0 6.0 0.00 0.00 0.00 74 1019.9
20260505120609 84 9 2.0 4.0 0.00 0.00 0.00 74 1019.7
20260505120105 84 354 3.0 7.0 0.00 0.00 0.00 74 1019.8
20260505115600 84 19 2.0 7.0 0.00 0.00 0.00 74 1019.9
20260505115057 84 120 1.0 4.0 0.00 0.00 0.00 74 1019.8
20260505114555 84 356 2.0 7.0 0.00 0.00 0.00 75 1019.7
20260505114050 83 20 3.0 3.0 0.00 0.00 0.00 76 1019.7
20260505113547 83 354 1.0 3.0 0.00 0.00 0.00 77 1019.6
20260505113044 82 183 2.0 6.0 0.00 0.00 0.00 78 1019.4
20260505112540 82 30 4.0 8.0 0.00 0.00 0.00 78 1019.7
20260505112039 82 348 1.0 4.0 0.00 0.00 0.00 79 1019.7
20260505111538 82 349 1.0 4.0 0.00 0.00 0.00 80 1019.4
20260505111034 81 16 0.0 4.0 0.00 0.00 0.00 81 1019.3
20260505110531 81 321 2.0 4.0 0.00 0.00 0.00 81 1019.3
20260505102003 80 119 3.0 4.0 0.00 0.00 0.00 83 1018.8
20260505101501 80 253 1.0 2.0 0.00 0.00 0.00 83 1018.6
20260505100957 80 253 1.0 3.0 0.00 0.00 0.00 83 1018.5
20260505100455 80 12 1.0 2.0 0.00 0.00 0.00 82 1018.7
20260505095951 80 105 1.0 3.0 0.00 0.00 0.00 82 1018.5
20260505095448 80 158 1.0 4.0 0.00 0.00 0.00 82 1018.4
20260505094944 80 348 2.0 4.0 0.00 0.00 0.00 82 1018.5
20260505094441 80 11 1.0 2.0 0.00 0.00 0.00 82 1018.4
20260505093937 80 87 1.0 9.0 0.00 0.00 0.00 82 1018.3
20260505093434 80 323 0.0 2.0 0.00 0.00 0.00 82 1018.3
20260505092931 80 146 4.0 8.0 0.00 0.00 0.00 83 1018.2
20260505092429 80 353 2.0 4.0 0.00 0.00 0.00 83 1018.1
20260505091926 80 340 1.0 2.0 0.00 0.00 0.00 83 1018.3
20260505091423 80 135 2.0 4.0 0.00 0.00 0.00 83 1018.1
20260505090921 80 334 1.0 2.0 0.00 0.00 0.00 83 1018.0
20260505090419 80 36 2.0 3.0 0.00 0.00 0.00 83 1018.0
20260505085916 80 70 1.0 4.0 0.00 0.00 0.00 82 1018.0
20260505085414 80 29 1.0 4.0 0.00 0.00 0.00 82 1018.0
20260505084912 80 49 1.0 2.0 0.00 0.00 0.00 82 1018.2
20260505084410 80 78 2.0 3.0 0.00 0.00 0.00 82 1018.1
20260505083908 80 332 1.0 6.0 0.00 0.00 0.00 82 1017.8
20260505083405 80 354 1.0 4.0 0.00 0.00 0.00 82 1017.8
20260505082901 80 338 1.0 6.0 0.00 0.00 0.00 83 1017.7
20260505082357 80 358 2.0 8.0 0.00 0.00 0.00 83 1017.8
20260505081854 80 332 2.0 3.0 0.00 0.00 0.00 83 1017.8
20260505081350 80 11 4.0 6.0 0.00 0.00 0.00 83 1017.7
20260505080847 80 354 3.0 6.0 0.00 0.00 0.00 83 1017.7
20260505080343 80 341 2.0 4.0 0.00 0.00 0.00 83 1017.6
20260505075839 80 332 1.0 1.0 0.00 0.00 0.00 82 1017.7
20260505075336 80 329 2.0 4.0 0.00 0.00 0.00 82 1017.5
20260505074833 80 355 2.0 4.0 0.00 0.00 0.00 82 1017.6
20260505074330 80 289 1.0 6.0 0.00 0.00 0.00 82 1017.6
20260505073828 80 205 1.0 4.0 0.00 0.00 0.00 82 1017.7
20260505073326 80 312 0.0 2.0 0.00 0.00 0.00 82 1017.7
20260505072822 80 1 1.0 2.0 0.00 0.00 0.00 82 1017.6
20260505072318 80 309 0.0 2.0 0.00 0.00 0.00 82 1017.5
20260505071814 80 351 1.0 2.0 0.00 0.00 0.00 82 1017.6
20260505071311 80 89 2.0 4.0 0.00 0.00 0.00 82 1017.4
20260505070809 80 18 1.0 2.0 0.00 0.00 0.00 82 1017.6
20260505070305 80 36 2.0 6.0 0.00 0.00 0.00 82 1017.6
20260505065800 80 16 1.0 2.0 0.00 0.00 0.00 82 1017.7
20260505065258 80 346 0.0 4.0 0.00 0.00 0.00 82 1017.7
20260505064755 80 46 1.0 4.0 0.00 0.00 0.00 82 1017.7
20260505064252 80 132 2.0 3.0 0.00 0.00 0.00 82 1017.8
20260505063750 80 307 1.0 3.0 0.00 0.00 0.00 82 1017.6
20260505063246 80 19 2.0 7.0 0.00 0.00 0.00 82 1017.8
20260505062742 80 331 1.0 4.0 0.00 0.00 0.00 82 1017.9
20260505062240 80 18 1.0 2.0 0.00 0.00 0.00 82 1017.8
20260505061737 80 26 3.0 6.0 0.00 0.00 0.00 82 1017.9
20260505061235 80 261 1.0 3.0 0.00 0.00 0.00 82 1018.0
20260505060732 80 339 0.0 2.0 0.00 0.00 0.00 82 1017.9
20260505060229 80 343 2.0 7.0 0.00 0.00 0.00 82 1018.3
20260505055724 80 38 1.0 3.0 0.00 0.00 0.00 81 1018.1
20260505055221 80 343 1.0 6.0 0.00 0.00 0.00 81 1018.3
20260505054718 80 39 2.0 3.0 0.00 0.00 0.00 81 1018.3
20260505054216 80 221 1.0 3.0 0.00 0.00 0.00 82 1018.2
20260505053714 80 53 0.0 4.0 0.00 0.00 0.00 82 1018.1
20260505053210 80 355 2.0 2.0 0.00 0.00 0.00 82 1018.3
20260505052707 80 31 2.0 4.0 0.00 0.00 0.00 82 1018.4
20260505052204 80 117 1.0 3.0 0.00 0.00 0.00 81 1018.3
20260505051701 80 349 1.0 3.0 0.00 0.00 0.00 81 1018.3
20260505051159 80 100 0.0 3.0 0.00 0.00 0.00 82 1018.4
20260505050657 80 344 1.0 4.0 0.00 0.00 0.00 82 1018.3
20260505050155 80 293 1.0 2.0 0.00 0.00 0.00 81 1018.5
20260505041624 80 337 1.0 3.0 0.00 0.00 0.00 82 1018.9
20260505041122 81 331 1.0 2.0 0.00 0.00 0.00 82 1018.9
20260505040619 81 115 2.0 4.0 0.00 0.00 0.00 82 1018.8
20260505040116 81 159 2.0 3.0 0.00 0.00 0.00 82 1018.9
20260505035612 81 343 2.0 3.0 0.00 0.00 0.00 82 1018.8
20260505035109 81 21 1.0 3.0 0.00 0.00 0.00 82 1018.9
20260505034605 81 253 2.0 3.0 0.00 0.00 0.00 82 1018.8
20260505034102 81 345 2.0 4.0 0.00 0.00 0.00 82 1019.2
20260505033559 81 349 1.0 3.0 0.00 0.00 0.00 82 1019.2
20260505033058 81 310 4.0 7.0 0.00 0.00 0.00 82 1018.9
20260505032555 81 56 1.0 4.0 0.00 0.00 0.00 81 1018.9
20260505032051 81 354 1.0 8.0 0.00 0.00 0.00 81 1018.7
20260505031549 81 341 2.0 4.0 0.00 0.00 0.00 81 1018.9
20260505031045 81 338 2.0 7.0 0.00 0.00 0.00 81 1018.9
20260505030542 81 331 1.0 3.0 0.00 0.00 0.00 81 1018.8
20260505030038 81 17 1.0 3.0 0.00 0.00 0.00 81 1018.6
20260505025533 81 344 0.0 2.0 0.00 0.00 0.00 81 1018.8
20260505025033 81 333 1.0 2.0 0.00 0.00 0.00 81 1018.8